Regional Weather Roundup
Issued by NWS Wakefield, VA

Home | Current Version | Previous Version | Text Only | Print | Product List | Glossary On
Versions: 1 2 3 4 5 6 7 8 9 10 11 12 13 14 15 16 17 18 19 20 21 22 23 24 25 26 27
000
ASUS41 KAKQ 241410
RWRAKQ

REGIONAL WEATHER ROUNDUP
NATIONAL WEATHER SERVICE WAKEFIELD VA
1000 AM EDT FRI OCT 24 2014

Note: "fair" indicates few or no clouds below 12,000 feet with no
significant weather and/or obstructions to visibility. * = Denotes
station may not report precipitation (e.g., rain,snow,etc.),
thunder or fog.

VAZ042-051-052>054-056-241500-
NORTHERN VIRGINIA

CITY           SKY/WX    TMP DP  RH WIND       PRES   REMARKS
WASH NATIONAL  PTSUNNY   59  42  53 NW13G22   29.99R
DULLES         PTSUNNY   55  42  61 NW18G25   30.01R
FORT BELVOIR   MOSUNNY   58  44  59 NW14G25   30.00R
QUANTICO       PTSUNNY   57  42  57 NW21G28   30.02R
FREDERICKSBRG* PTSUNNY   60  44  55 N10       30.00S
STAFFORD*      PTSUNNY   57  42  58 NW10G18   30.05S
WARRENTON      PTSUNNY   60  48  64 N5        30.01R
CULPEPER*      PTSUNNY   57  43  58 N3        30.02S
MANASSAS*      NOT AVBL
LEESBURG*      MOSUNNY   55  46  71 NW16G22   30.02S
WINCHESTER     MOSUNNY   57  36  44 W15       30.03S
FRONT ROYAL*   PTSUNNY   57  43  58 S3        30.03F
LURAY*         PTSUNNY   55  45  67 SW7       30.05S
$$

VAZ048-049-060>072-079>083-241500-
CENTRAL AND SOUTH CENTRAL VIRGINIA...AND NORTH CENTRAL NORTH CAROLINA

CITY           SKY/WX    TMP DP  RH WIND       PRES   REMARKS
RICHMOND       PTSUNNY   59  44  57 NW7       30.01S
CHESTERFIELD*    N/A    N/A N/A N/A MISG        N/A
PETERSBURG*    MOSUNNY   58  42  55 NW7       30.03R
HANOVER        PTSUNNY   56  45  66 NW5       30.03R
TAPPAHANNOCK*  PTSUNNY   58  41  54 NW7       30.00S
CHARLOTTSVILLE PTSUNNY   55  42  61 NW3       30.02S
ORANGE*        PTSUNNY   52  45  76 CALM      30.02F
LOUISA*        CLOUDY    54  45  71 CALM      30.00R
FARMVILLE*     PTSUNNY   55  45  67 CALM      30.01F
CREWE*         MOSUNNY   57  42  58 NW7       30.02S
FORT PICKETT*  MOSUNNY   58  44  60 N7        30.02S
LUNENBURG*     MOSUNNY   57  45  63 NW3       30.02S
SOUTH HILL*    MOSUNNY   55  45  67 W3        30.08S
LAWRENCEVILLE* MOSUNNY   54  47  76 CALM      30.02F
ROANOKE RAPIDS MOSUNNY   55  45  67 N6        30.03S
RALEIGH        PTSUNNY   53  42  66 N3        30.07R
$$

VAZ088>098-241500-
SOUTHEAST VIRGINIA

CITY           SKY/WX    TMP DP  RH WIND       PRES   REMARKS
NORFOLK        MOSUNNY   59  44  57 N10G22    29.98S
VIRGINIA BEACH PTSUNNY   62  47  57 NW16G29   29.96F
NORFOLK NAVAL  PTSUNNY   61  44  53 NW20G25   30.00S
WEST POINT*    MOSUNNY   60  43  54 NW10      30.01S
NEWPORT NEWS   MOSUNNY   62  44  51 NW10      30.00R
LANGLEY AFB    MOSUNNY   58  45  61 NW16G23   29.99S
FORT EUSTIS    MOSUNNY   59  42  54 NW12      29.99R
WILLIAMSBURG*  MOSUNNY   61  46  59 N13G22    30.00F
HR EXEC AP*    MOSUNNY   55  46  71 NW9       30.01S
FRANKLIN*      SUNNY     55  45  67 N5        30.01F
WAKEFIELD      SUNNY     57  44  62 VRB5      30.02R
$$

VAZ020-022-025-037-045-241500-
WEST CENTRAL AND SOUTHWEST VIRGINIA

CITY           SKY/WX    TMP DP  RH WIND       PRES   REMARKS
STAUNTON*      PTSUNNY   50  42  76 CALM      30.08F
HOT SPRINGS VA PTSUNNY   42  38  84 W17       30.04F
LYNCHBURG      PTSUNNY   54  42  64 VRB3      30.05S
DANVILLE       MOSUNNY   59  42  53 N9        30.06S
SOUTH BOSTON*  NOT AVBL
MARTINSVILLE   PTSUNNY   57  44  60 NW9       30.09S
ROANOKE        CLOUDY    52  42  69 W7        30.10S
BLACKSBURG     CLOUDY    48  45  87 CALM      30.12S
DUBLIN*        CLOUDY    47  45  90 CALM      30.12S
MARION*        PTSUNNY   46  42  86 W6        30.15S
HILLSVILLE*    PTSUNNY   45  40  83 NW3       30.11R
RICHLANDS*     PTSUNNY   44  42  92 N3        30.13R
WISE*          CLOUDY    45  45 100 CALM      30.14S
ABINGDON*      PTSUNNY   46  43  90 CALM      30.14S
$$

MDZ021>025-VAZ099-100-241500-
SOUTHERN MARYLAND AND THE DELMARVA PENINSULA

CITY           SKY/WX    TMP DP  RH WIND       PRES   REMARKS
PATUXENT RIVER PTSUNNY   59  44  57 NW15      29.96S
BAY BRIDGE APT   N/A     57  43  58 NW14      29.94S
LEONARDTOWN    MOSUNNY   55  43  62 W9G16     29.99R
DOVER          MOSUNNY   59  47  63 NW17G24   29.87S
GEORGETOWN     PTSUNNY   58  45  62 W10G18    29.91S
EASTON         MOSUNNY   59  48  67 NW14G22   29.97R
CAMBRIDGE      SUNNY     59  45  58 NW12G23   29.93S
SALISBURY      SUNNY     61  46  57 NW15G23   29.91F
OCEAN CITY     PTSUNNY   58  47  66 NW8G22    29.90F
WALLOPS ISLAND PTSUNNY   61  47  59 NW15G21   29.93S
ACCOMACK*      SUNNY     59  45  58 NW14G24   29.94S
$$

NCZ012>017-030>032-241500-
EASTERN NORTH CAROLINA

CITY           SKY/WX    TMP DP  RH WIND       PRES   REMARKS
ELIZABETH CITY MOSUNNY   54  45  71 W7        30.00S
AHOSKIE*       PTSUNNY   55  45  71 NW3       30.02S
EDENTON*       MOSUNNY   56  46  69 NW7       30.02R
CURRITUCK*     MOSUNNY   56  45  66 NW7       29.99S
KILL DEVIL HLS MOSUNNY   56  46  68 NW10      29.96S
MANTEO         MOSUNNY   57  46  68 NW9G21    29.99R
CAPE HATTERAS  MOSUNNY   60  49  66 NW12G17   29.99R
TARBORO*       PTSUNNY   53  47  82 W6        30.05R
GOLDSBORO      PTSUNNY   55  49  82 NW3       30.05R
WASHINGTON     CLOUDY    52  46  82 CALM      30.04R
GREENVILLE     PTSUNNY   54  46  76 NW3       30.06R
NEW BERN       CLOUDY    55  48  77 N3        30.05S
WILMINGTON     MOSUNNY   57  47  69 VRB5      30.05R
$$

VAZ048-241500-
ELSEWHERE

CITY           SKY/WX    TMP DP  RH WIND       PRES   REMARKS
HARRISBURG PA  MOSUNNY   57  41  55 NW15      29.95R
BALTIMORE      MOSUNNY   59  42  53 NW20G28   29.95S
ANNAPOLIS      SUNNY     58  44  60 NW14G21   29.94F
ANDREWS AFB    MOSUNNY   56  43  61 NW17G25   29.97R
WILMINGTON DE  MOSUNNY   61  46  57 NW13      29.91R
PHILADELPHIA   PTSUNNY   59  43  55 N22G29    29.89R
WILDWOOD NJ*   CLOUDY    59  46  63 NW9G17    29.89R
ATLANTIC CITY  CLOUDY    57  47  69 NW17G23   29.86R
HENDERSON NC   MOSUNNY   55  42  60 NW7       30.05R
GREENSBORO     PTSUNNY   55  42  61 N6        30.07R
ROCKY MOUNT    PTSUNNY   55  45  68 W7        30.05R
FAYETTEVILLE   MOSUNNY   57  43  59 N7        30.07R
CHARLOTTE      PTSUNNY   53  44  71 CALM      30.10R
$$

VAZ100-241500-
MARINE

STATION/POSITION TIME  TEMP    WIND        PRES    WAVE   SWELL
                       AIR SEA DIR/SP/G            HT/PER HT/PER
                 (UTC) (F)     (DEG/KT/KT) (MB)    (FT/S) (FT/S)
44066 TX TWR #4  1400   56 66  320/ 19/ 21 1007.8R   8/ 6   2/10
CAPE MAY NJ      1400   58 63  310/ 16/ 21 1011.1F
LEWES DE         1400   58 57  310/ 18/ 22 1012.0S
15NM E FENWICK I 1400   58 64  290/ 17/ 23 1011.4R   5/ 7   2/11
OCEAN-CITY-INLET 1400   56 62  320/ 10/ 13 1012.2R
WACHAPREAGUE VA  1400   60 59  290/  5/ 11 1013.8S
THOMAS POINT MD  1400   57 62  310/ 17/ 21 1014.8F
GOOSES REEF MD   1400   58     330/ 17/ 21 1014.7S
COVE POINT MD    1400   57     340/ 19/ 22 1014.0S
SOLOMONS ISLAND  1400      63                N/A
BISHOPS HEAD MD  1400   57 55  310/ 15/ 22 1013.4S
PINEY POINT MD   1400          330/ 22/ 24   N/A
POTOMAC MD       1400   58     330/ 19/ 25 1014.1S
CAMBRIDGE MD     1400   57 60  300/ 14/ 24 1013.4S
LEWISETTA VA     1400   57 59  330/ 14/ 18 1014.6F
RAPPAHANNOCK LGT 1400          310/ 22/ 24 1014.6S
STINGRAY PT      1400   58     320/ 16/ 19 1015.2R
YORK RVR RNG VA  1400   57     330/ 18/ 21 1014.7S
YORKTOWN VA      1400   57 64  310/ 17/ 19 1015.2R
JAMESTOWN VA     1400   56     350/ 12/ 16   N/A
DOMINION TERM VA 1400   58     330/ 17/ 22 1015.4R
KIPTOPEKE VA     1400      64  320/ 20/ 23   N/A
CHES BAY BRIDGE  1400   58 65  310/ 22/ 26 1014.5S
CHESAPEAKE LGHT  1300   58     330/ 23/ 25 1014.7R
WILLOUBY STN VA  1400   58     330/ 16/ 19 1014.0R
S CRANEY ISL VA  1400          290/ 12/ 17 1015.0R
CAPE HENRY BUOY  1400      67                N/A     5/ 5
1ST LANDING BUOY 1400   59     320/ 19/ 23 1014.4S
CAPE CHARLES BUO 1400      66                N/A     4/ 5   2/ 8
64NM E OF VA BCH 1400   62 66  330/ 17/ 21 1012.8R   7/ 7
DUCK PIER NC     1400   55 66  310/ 14/ 17 1014.2R
44100 DUCK FRF   1400      67                N/A     5/ 7
44056 DUCK FRF   1400                        N/A     4/ 8
OREGON INLET NC  1400   58 63  310/ 12/ 17 1014.9F
HATTERAS NC      1400   59 63  330/ 19/ 21 1015.9R
DIAMOND SHLS NC  1400   61     320/ 16/ 19 1015.2R   4/ 4
CAPE LOOKOUT NC  1300   58     350/ 11/ 13 1016.5R
$$



USA.gov is the U.S. government's official web portal to all federal, state and local government web resources and services.